User: anonymous
Location: Unspecified
(0.0000°N, 0.0000°E)
Time: 05:22:35
(UTC+00:00)
Language:

Transit 2A Rocket - Orbit

View from above orbital plane
View from above orbital plane
View from above satellite
View from above satellite

Ground track
Ground track

The orbit data is extracted from the following two-line orbital elements,

1 00047U 60007C   14292.41354327  .00001702  00000-0  40989-3 0  3381
2 00047 066.6662 282.8387 0228470 013.9323 346.7941 14.41250907836988
Epoch (UTC): 19 October 2014 09:55:30
Eccentricity: 0.0228470
inclination: 66.6662°
perigee height: 591 km
apogee height: 917 km
right ascension of ascending node: 282.8387°
argument of perigee: 13.9323°
revolutions per day: 14.41250907
mean anomaly at epoch: 346.7941°
orbit number at epoch: 83698

The dashed part of the orbit path shows where the satellite is in the earth's shadow,  

DLR